Date String (YYYY-MM-DD hh:mm:ss) UTC,Instrument flags,Ambient pressure (hPa),Sample flow (lpm),Bypass flow (lpm),Sample temperature (°C),Ambient temperature (°C),ASC tube jacket temperature (°C),LED temperature (°C),Box temperature (°C),Sample RH (%),Span deviation,Mass concentration (μg/m³),Mass concentration (μg/m³),Mass concentration (μg/m³)
DateTimeUTC,F1_M11,P_M11,Q1_M11,Q2_M11,T1_M11,T2_M11,T3_M11,T4_M11,T5_M11,U1_M11,ZSPAN_M11,X0_M11,X2_M11,X1_M11
2021-10-26 04:00:00,,0816.9,5.01,0.00,30.4,29.5,00.0,39.4,32.1,12.9,0000.0,0012.66,0003.86,0001.91
2021-10-26 04:01:00,,0817.2,5.00,0.00,30.4,29.5,00.0,39.4,32.1,12.9,0000.0,0012.63,0003.85,0001.90
2021-10-26 04:02:00,,0817.2,5.02,0.00,30.4,29.5,00.0,39.4,32.1,12.9,0000.0,0013.03,0003.84,0001.90
2021-10-26 04:03:00,,0816.9,5.01,0.00,30.4,29.5,00.0,39.4,32.0,12.9,0000.0,0013.82,0003.87,0001.90
2021-10-26 04:04:00,,0816.9,5.00,0.00,30.4,29.5,00.0,39.4,32.0,12.8,0000.0,0013.50,0003.84,0001.89
2021-10-26 04:05:00,,0816.8,4.99,0.00,30.4,29.5,00.0,39.4,32.0,12.9,0000.0,0013.45,0003.79,0001.92
2021-10-26 04:06:00,,0816.8,5.00,0.00,30.4,29.5,00.0,39.4,32.1,12.9,0000.0,0012.69,0003.79,0001.95
2021-10-26 04:07:00,,0816.8,5.00,0.00,30.4,29.5,00.0,39.4,32.1,12.9,0000.0,0012.00,0003.80,0001.97
2021-10-26 04:08:00,,0816.9,5.01,0.00,30.4,29.5,00.0,39.4,32.1,12.9,0000.0,0013.34,0003.78,0001.99
2021-10-26 04:09:00,,0816.9,4.99,0.00,30.4,29.5,00.0,39.4,32.1,12.9,0000.0,0014.48,0003.81,0002.00
2021-10-26 04:10:00,,0816.6,5.00,0.00,30.4,29.5,00.0,39.5,32.1,12.8,0000.0,0015.48,0003.86,0002.01
2021-10-26 04:11:00,,0816.7,5.00,0.00,30.4,29.5,00.0,39.5,32.1,12.8,0000.0,0015.45,0003.87,0002.01
2021-10-26 04:12:00,,0816.6,5.00,0.00,30.4,29.5,00.0,39.5,32.1,12.8,0000.0,0015.94,0003.81,0002.03
2021-10-26 04:13:00,,0816.8,4.99,0.00,30.4,29.5,00.0,39.5,32.1,12.8,0000.0,0016.04,0003.79,0002.06
2021-10-26 04:14:00,,0816.6,5.00,0.00,30.4,29.6,00.0,39.5,32.1,12.8,0000.0,0015.61,0003.73,0002.08
2021-10-26 04:15:00,,0816.6,5.00,0.00,30.4,29.5,00.0,39.5,32.1,12.8,0000.0,0015.84,0003.76,0002.13
2021-10-26 04:16:00,,0816.6,5.00,0.00,30.4,29.5,00.0,39.5,32.1,12.8,0000.0,0016.27,0003.86,0002.16
2021-10-26 04:17:00,,0816.7,5.00,0.00,30.4,29.5,00.0,39.5,32.0,12.8,0000.0,0015.73,0003.90,0002.17
2021-10-26 04:18:00,,0816.9,4.99,0.00,30.4,29.5,00.0,39.5,32.0,12.8,0000.0,0015.80,0003.95,0002.18
2021-10-26 04:19:00,,0816.7,4.99,0.00,30.4,29.5,00.0,39.5,32.1,12.8,0000.0,0015.28,0003.97,0002.19
2021-10-26 04:20:00,,0816.7,5.01,0.00,30.4,29.5,00.0,39.5,32.1,12.8,0000.0,0014.79,0003.99,0002.20
2021-10-26 04:21:00,,0816.6,4.99,0.00,30.4,29.5,00.0,39.5,32.1,12.8,0000.0,0014.15,0003.98,0002.22
2021-10-26 04:22:00,,0817.0,5.01,0.00,30.4,29.5,00.0,39.5,32.0,12.8,0000.0,0014.33,0003.95,0002.25
2021-10-26 04:23:00,,0816.5,5.00,0.00,30.4,29.5,00.0,39.5,32.1,12.8,0000.0,0013.68,0003.92,0002.25
2021-10-26 04:24:00,,0816.5,5.00,0.00,30.4,29.5,00.0,39.5,32.1,12.8,0000.0,0013.83,0003.93,0002.25
2021-10-26 04:25:00,,0816.5,5.00,0.00,30.4,29.5,00.0,39.5,32.1,12.8,0000.0,0014.63,0004.00,0002.26
2021-10-26 04:26:00,,0816.5,5.00,0.00,30.4,29.5,00.0,39.5,32.1,12.8,0000.0,0015.13,0004.06,0002.24
2021-10-26 04:27:00,,0816.5,5.00,0.00,30.4,29.5,00.0,39.5,32.1,12.8,0000.0,0015.40,0004.00,0002.19
2021-10-26 04:28:00,,0816.6,5.00,0.00,30.4,29.5,00.0,39.5,32.1,12.8,0000.0,0017.05,0004.01,0002.18
2021-10-26 04:29:00,,0816.5,4.99,0.00,30.4,29.5,00.0,39.5,32.1,12.8,0000.0,0017.72,0003.98,0002.18
2021-10-26 04:30:00,,0816.5,5.00,0.00,30.4,29.5,00.0,39.5,32.1,12.8,0000.0,0017.44,0004.00,0002.19
2021-10-26 04:31:00,,0816.5,5.02,0.00,30.4,29.5,00.0,39.5,32.1,12.8,0000.0,0016.76,0003.97,0002.18
2021-10-26 04:32:00,,0816.5,4.99,0.00,30.4,29.5,00.0,39.5,32.1,12.8,0000.0,0017.04,0003.94,0002.17
2021-10-26 04:33:00,,0816.5,5.01,0.00,30.4,29.5,00.0,39.5,32.0,12.7,0000.0,0017.79,0003.92,0002.17
2021-10-26 04:34:00,,0816.5,4.99,0.00,30.3,29.4,00.0,39.5,32.0,12.7,0000.0,0018.12,0003.97,0002.18
2021-10-26 04:35:00,,0816.4,5.00,0.00,30.3,29.4,00.0,39.5,32.0,12.8,0000.0,0018.40,0003.97,0002.19
2021-10-26 04:36:00,,0816.5,5.04,0.00,30.3,29.4,00.0,39.5,32.0,12.9,0000.0,0017.19,0003.94,0002.19
2021-10-26 04:37:00,,0816.5,5.00,0.00,30.3,29.4,00.0,39.5,32.0,12.9,0000.0,0016.92,0003.92,0002.19
2021-10-26 04:38:00,,0816.5,5.01,0.00,30.3,29.4,00.0,39.5,32.0,12.9,0000.0,0016.47,0003.93,0002.20
2021-10-26 04:39:00,,0816.6,4.99,0.00,30.3,29.4,00.0,39.5,32.0,12.9,0000.0,0014.62,0003.91,0002.21
2021-10-26 04:40:00,,0816.5,4.99,0.00,30.3,29.4,00.0,39.5,32.0,12.9,0000.0,0013.99,0003.89,0002.22
2021-10-26 04:41:00,,0816.6,5.01,0.00,30.3,29.4,00.0,39.5,32.0,13.0,0000.0,0013.31,0003.84,0002.21
2021-10-26 04:42:00,,0816.4,4.99,0.00,30.3,29.4,00.0,39.5,32.0,13.0,0000.0,0013.51,0003.85,0002.20
2021-10-26 04:43:00,,0816.4,5.00,0.00,30.3,29.4,00.0,39.5,32.0,13.0,0000.0,0014.96,0003.91,0002.20
2021-10-26 04:44:00,,0816.4,5.00,0.00,30.3,29.4,00.0,39.5,32.0,13.0,0000.0,0015.44,0003.96,0002.23
2021-10-26 04:45:00,,0816.5,5.00,0.00,30.3,29.4,00.0,39.5,32.0,13.0,0000.0,0016.53,0004.00,0002.23
2021-10-26 04:46:00,,0816.4,5.01,0.00,30.3,29.4,00.0,39.5,32.0,13.0,0000.0,0016.98,0004.01,0002.23
2021-10-26 04:47:00,,0816.4,4.99,0.00,30.3,29.4,00.0,39.5,32.0,12.9,0000.0,0017.82,0004.06,0002.23
2021-10-26 04:48:00,,0816.4,5.00,0.00,30.3,29.4,00.0,39.5,32.0,12.9,0000.0,0018.51,0004.03,0002.24
2021-10-26 04:49:00,,0816.4,5.01,0.00,30.3,29.4,00.0,39.5,32.0,12.9,0000.0,0019.16,0004.07,0002.25
2021-10-26 04:50:00,,0816.4,5.00,0.00,30.3,29.4,00.0,39.5,32.0,12.9,0000.0,0019.22,0004.09,0002.25
2021-10-26 04:51:00,,0816.4,4.99,0.00,30.3,29.4,00.0,39.5,32.0,12.9,0000.0,0019.36,0004.11,0002.25
2021-10-26 04:52:00,,0816.3,5.01,0.00,30.3,29.4,00.0,39.5,32.0,12.9,0000.0,0019.48,0004.16,0002.25
2021-10-26 04:53:00,,0816.3,4.99,0.00,30.3,29.4,00.0,39.5,32.0,12.9,0000.0,0020.43,0004.20,0002.25
2021-10-26 04:54:00,,0816.4,5.01,0.00,30.3,29.4,00.0,39.5,32.0,12.9,0000.0,0019.81,0004.18,0002.27
2021-10-26 04:55:00,,0816.3,5.00,0.00,30.3,29.4,00.0,39.5,32.0,12.9,0000.0,0018.25,0004.22,0002.25
2021-10-26 04:56:00,,0816.3,5.00,0.00,30.3,29.4,00.0,39.4,32.0,12.9,0000.0,0018.08,0004.24,0002.24
2021-10-26 04:57:00,,0816.2,5.00,0.00,30.3,29.4,00.0,39.4,32.0,12.9,0000.0,0018.89,0004.29,0002.23
2021-10-26 04:58:00,,0816.2,5.01,0.00,30.3,29.4,00.0,39.4,32.0,12.7,0000.0,0018.29,0004.24,0002.24
2021-10-26 04:59:00,,0816.3,5.00,0.00,30.3,29.4,00.0,39.4,32.0,12.7,0000.0,0018.41,0004.26,0002.23
